EW3608 Weather Reports


Display with metric or nautical units.
time (UTC)temp
F
wind
direction
speed
MPH
gust
MPH
rain 1hr
in
rain 24hr
in
rain mn
in
humidity
%
barometer
mb
20260505022510 50 124 0.0 2.0 0.02 0.02 0.02 81 1011.2
20260505022006 51 123 0.0 0.0 0.01 0.01 0.01 79 1011.0
20260505021503 51 123 0.0 0.0 0.01 0.01 0.01 78 1011.0
20260505021004 51 123 0.0 1.0 0.01 0.01 0.01 77 1010.9
20260505020503 51 123 0.0 2.0 0.01 0.01 0.01 76 1010.8
20260505020006 51 123 0.0 2.0 0.01 0.01 0.01 75 1010.9
20260505015506 51 116 0.0 2.0 0.00 0.00 0.00 76 1011.0
20260505015010 51 115 0.0 2.0 0.00 0.00 0.00 75 1010.9
20260505014519 51 128 0.0 2.0 0.00 0.00 0.00 75 1010.8
20260505014008 51 121 0.0 8.0 0.00 0.00 0.00 72 1010.7
20260505013512 52 87 1.0 10.0 0.00 0.00 0.00 70 1010.6
20260505013016 52 349 2.0 10.0 0.00 0.00 0.00 70 1010.5
20260505012502 53 344 4.0 12.0 0.00 0.00 0.00 67 1010.5
20260505012005 54 24 5.0 12.0 0.00 0.00 0.00 61 1010.6
20260505011514 56 343 4.0 14.0 0.00 0.00 0.00 57 1010.5
20260505011006 57 315 3.0 14.0 0.00 0.00 0.00 53 1010.5
20260505010509 58 55 5.0 14.0 0.00 0.00 0.00 50 1010.5
20260505010020 58 60 2.0 8.0 0.00 0.00 0.00 49 1010.1
20260505005507 58 5 1.0 4.0 0.00 0.00 0.00 48 1010.1
20260505005004 58 341 2.0 5.0 0.00 0.00 0.00 48 1010.0
20260505004505 58 350 1.0 5.0 0.00 0.00 0.00 48 1009.9
20260505004004 58 339 3.0 6.0 0.00 0.00 0.00 48 1009.9
20260505003511 59 333 2.0 6.0 0.00 0.00 0.00 48 1009.9
20260505003017 59 339 3.0 6.0 0.00 0.00 0.00 48 1009.9
20260505002508 59 352 2.0 6.0 0.00 0.00 0.00 48 1009.8
20260505002010 59 318 1.0 6.0 0.00 0.00 0.00 49 1009.9
20260505001522 60 344 2.0 5.0 0.00 0.00 0.00 49 1009.7
20260505001005 60 34 1.0 5.0 0.00 0.00 0.00 50 1009.8
20260505000503 60 360 1.0 3.0 0.00 0.00 0.00 49 1009.6
20260505000025 59 18 1.0 4.0 0.00 0.00 0.00 48 1009.5
20260504235509 59 333 0.0 5.0 0.00 0.00 0.00 49 1009.5
20260504235007 59 38 3.0 5.0 0.00 0.00 0.00 49 1009.6
20260504234522 59 316 2.0 5.0 0.00 0.00 0.00 47 1009.7
20260504234006 59 328 0.0 3.0 0.00 0.00 0.00 49 1009.5
20260504233509 59 309 0.0 3.0 0.00 0.00 0.00 49 1009.5
20260504233006 59 313 0.0 3.0 0.00 0.00 0.00 49 1009.6
20260504232504 59 347 1.0 3.0 0.00 0.00 0.00 48 1009.4
20260504232006 59 333 1.0 2.0 0.00 0.00 0.00 51 1009.4
20260504231525 59 168 0.0 2.0 0.00 0.00 0.00 50 1009.1
20260504231012 59 120 0.0 2.0 0.00 0.00 0.00 48 1009.3
20260504230507 59 59 0.0 2.0 0.00 0.00 0.00 52 1009.4
20260504230022 59 198 0.0 4.0 0.00 0.00 0.00 53 1009.3
20260504225507 60 292 1.0 8.0 0.00 0.00 0.00 49 1009.4
20260504225005 60 235 2.0 8.0 0.00 0.00 0.00 44 1009.6
20260504224509 61 202 2.0 7.0 0.00 0.00 0.00 43 1009.6
20260504224009 61 274 0.0 6.0 0.00 0.00 0.00 41 1009.7
20260504223506 61 316 0.0 6.0 0.00 0.00 0.00 43 1009.7
20260504223018 61 212 1.0 7.0 0.00 0.00 0.00 41 1009.7
20260504222506 61 271 1.0 7.0 0.00 0.00 0.00 42 1009.8
20260504222014 61 280 1.0 5.0 0.00 0.00 0.00 40 1009.7
20260504221524 61 271 1.0 4.0 0.00 0.00 0.00 40 1009.5
20260504221005 62 283 1.0 3.0 0.00 0.00 0.00 40 1009.2
20260504220504 62 265 1.0 3.0 0.00 0.00 0.00 40 1008.9
20260504220019 62 336 0.0 8.0 0.00 0.00 0.00 40 1008.6
20260504215507 62 324 1.0 12.0 0.00 0.00 0.00 39 1008.3
20260504215009 62 9 6.0 12.0 0.00 0.00 0.00 40 1008.4
20260504214524 62 52 2.0 13.0 0.00 0.00 0.00 39 1008.3
20260504214010 62 30 5.0 17.0 0.00 0.00 0.00 40 1008.3
20260504213511 62 11 6.0 17.0 0.00 0.00 0.00 39 1008.3
20260504213010 63 22 6.0 16.0 0.00 0.00 0.00 38 1008.3
20260504212509 63 352 4.0 18.0 0.00 0.00 0.00 36 1008.5
20260504212006 63 34 8.0 18.0 0.00 0.00 0.00 35 1008.6
20260504211516 64 339 4.0 15.0 0.00 0.00 0.00 35 1008.4
20260504211007 64 15 5.0 17.0 0.00 0.00 0.00 34 1008.5
20260504210511 65 34 9.0 17.0 0.00 0.00 0.00 34 1008.4
20260504210027 65 50 7.0 20.0 0.00 0.00 0.00 33 1008.2
20260504205511 65 76 6.0 20.0 0.00 0.00 0.00 31 1008.5
20260504205007 68 5 7.0 18.0 0.00 0.00 0.00 27 1008.5
20260504204511 72 322 3.0 8.0 0.00 0.00 0.00 24 1008.5
20260504204007 71 180 2.0 11.0 0.00 0.00 0.00 26 1007.7
20260504203507 69 139 4.0 11.0 0.00 0.00 0.00 27 1007.6
20260504203031 68 142 4.0 9.0 0.00 0.00 0.00 29 1007.7
20260504202508 68 105 4.0 9.0 0.00 0.00 0.00 29 1007.8
20260504202013 67 150 4.0 12.0 0.00 0.00 0.00 29 1007.8
20260504201528 67 207 3.0 12.0 0.00 0.00 0.00 29 1007.9
20260504201005 68 178 4.0 12.0 0.00 0.00 0.00 29 1008.0
20260504200509 69 150 4.0 12.0 0.00 0.00 0.00 26 1008.0
20260504200018 70 108 3.0 12.0 0.00 0.00 0.00 25 1008.1
20260504195507 71 121 2.0 12.0 0.00 0.00 0.00 23 1008.0
20260504195011 71 282 2.0 11.0 0.00 0.00 0.00 21 1007.8
20260504194539 71 209 2.0 13.0 0.00 0.00 0.00 21 1007.7
20260504194008 72 239 6.0 13.0 0.00 0.00 0.00 20 1007.7
20260504193510 72 238 3.0 10.0 0.00 0.00 0.00 20 1007.7
20260504193016 73 253 5.0 10.0 0.00 0.00 0.00 21 1007.7
20260504192507 72 163 2.0 8.0 0.00 0.00 0.00 22 1007.5
20260504192010 72 275 2.0 8.0 0.00 0.00 0.00 22 1007.5
20260504191519 72 303 3.0 7.0 0.00 0.00 0.00 21 1007.5
20260504191009 72 209 3.0 9.0 0.00 0.00 0.00 21 1007.3
20260504190511 72 203 3.0 9.0 0.00 0.00 0.00 21 1007.4
20260504190029 72 319 3.0 10.0 0.00 0.00 0.00 22 1007.5
20260504185513 71 275 3.0 10.0 0.00 0.00 0.00 22 1007.5
20260504185004 71 250 3.0 11.0 0.00 0.00 0.00 22 1007.5
20260504184518 71 192 2.0 11.0 0.00 0.00 0.00 22 1007.6
20260504184009 71 271 3.0 7.0 0.00 0.00 0.00 21 1007.8
20260504183513 71 275 2.0 13.0 0.00 0.00 0.00 22 1007.9
20260504183025 71 235 3.0 13.0 0.00 0.00 0.00 23 1007.9
20260504182510 71 253 2.0 14.0 0.00 0.00 0.00 22 1008.0
20260504182012 71 250 3.0 14.0 0.00 0.00 0.00 23 1008.2
20260504181525 71 347 4.0 12.0 0.00 0.00 0.00 23 1008.2
20260504181010 70 342 2.0 10.0 0.00 0.00 0.00 24 1008.4
20260504180509 70 294 5.0 12.0 0.00 0.00 0.00 24 1008.6
20260504180021 70 298 3.0 12.0 0.00 0.00 0.00 24 1008.5
20260504175507 69 291 2.0 15.0 0.00 0.00 0.00 25 1008.7
20260504175011 69 215 6.0 15.0 0.00 0.00 0.00 25 1008.7
20260504174526 70 342 5.0 12.0 0.00 0.00 0.00 24 1008.8
20260504174008 70 289 3.0 14.0 0.00 0.00 0.00 25 1008.9
20260504173511 69 277 4.0 14.0 0.00 0.00 0.00 25 1008.9
20260504173018 69 321 5.0 13.0 0.00 0.00 0.00 25 1008.9
20260504172508 69 273 5.0 13.0 0.00 0.00 0.00 25 1009.1
20260504172010 69 309 2.0 11.0 0.00 0.00 0.00 27 1009.2
20260504171521 68 288 3.0 11.0 0.00 0.00 0.00 26 1009.3
20260504171014 68 292 3.0 9.0 0.00 0.00 0.00 27 1009.3
20260504170512 67 352 3.0 9.0 0.00 0.00 0.00 27 1009.4
20260504151002 62 221 0.0 6.0 0.00 0.00 0.00 30 1009.8
20260504150502 62 235 1.0 6.0 0.00 0.00 0.00 29 1009.8
20260504141004 51 281 1.0 4.0 0.00 0.00 0.00 45 1009.8
20260504140502 50 257 1.0 4.0 0.00 0.00 0.00 50 1009.8
20260504130505 44 165 0.0 2.0 0.00 0.00 0.00 57 1009.6
20260504110505 41 179 0.0 2.0 0.00 0.00 0.00 60 1009.5
20260504100502 41 171 0.0 2.0 0.00 0.00 0.00 58 1009.8
20260504082008 46 187 0.0 2.0 0.00 0.00 0.00 48 1010.7
20260504081523 46 192 1.0 2.0 0.00 0.00 0.00 47 1010.7
20260504081006 46 212 0.0 2.0 0.00 0.00 0.00 47 1010.8
20260504080503 46 229 0.0 2.0 0.00 0.00 0.00 45 1010.9
20260504050509 61 296 1.0 7.0 0.00 0.00 0.00 28 1011.0
20260504050024 61 223 2.0 7.0 0.00 0.00 0.00 27 1011.0
20260504045510 61 247 2.0 7.0 0.00 0.00 0.00 27 1011.0
20260504045011 62 273 1.0 9.0 0.00 0.00 0.00 27 1011.1
20260504044508 62 257 2.0 9.0 0.00 0.00 0.00 27 1011.1
20260504044003 62 215 3.0 8.0 0.00 0.00 0.00 27 1011.2
20260504043504 62 232 2.0 9.0 0.00 0.00 0.00 27 1011.2
20260504043019 62 82 2.0 9.0 0.00 0.00 0.00 27 1011.2
20260504042508 62 223 3.0 9.0 0.00 0.00 0.00 27 1011.2
20260504042011 62 269 2.0 10.0 0.00 0.00 0.00 27 1011.3
20260504041525 62 277 2.0 10.0 0.00 0.00 0.00 27 1011.3
20260504041008 62 274 5.0 10.0 0.00 0.00 0.00 27 1011.4
20260504040504 62 267 4.0 10.0 0.00 0.00 0.00 27 1011.4
20260504040012 63 258 2.0 9.0 0.00 0.00 0.00 27 1011.4
20260504035507 63 321 2.0 9.0 0.00 0.00 0.00 27 1011.5
20260504035008 63 307 3.0 8.0 0.00 0.00 0.00 27 1011.5
20260504034535 63 265 2.0 8.0 0.00 0.00 0.00 27 1011.6
20260504034008 63 234 3.0 8.0 0.00 0.00 0.00 27 1011.5
20260504033512 63 288 2.0 7.0 0.00 0.00 0.00 27 1011.5
20260504033030 63 237 2.0 7.0 0.00 0.00 0.00 27 1011.6
20260504032503 63 214 1.0 7.0 0.00 0.00 0.00 27 1011.5
20260504032004 63 241 1.0 6.0 0.00 0.00 0.00 27 1011.6
20260504031516 63 221 1.0 6.0 0.00 0.00 0.00 27 1011.6
20260504031007 63 214 0.0 4.0 0.00 0.00 0.00 26 1011.6
20260504030510 64 223 1.0 4.0 0.00 0.00 0.00 26 1011.5
20260504030036 64 219 1.0 5.0 0.00 0.00 0.00 25 1011.5
20260504025509 64 216 0.0 6.0 0.00 0.00 0.00 25 1011.4
20260504025011 64 246 2.0 6.0 0.00 0.00 0.00 25 1011.4
20260504024510 65 223 1.0 3.0 0.00 0.00 0.00 25 1011.4
20260504024008 65 252 1.0 2.0 0.00 0.00 0.00 24 1011.3
20260504023507 65 183 0.0 2.0 0.00 0.00 0.00 24 1011.2
20260504023020 65 194 1.0 2.0 0.00 0.00 0.00 1011.2